Location: La Jugie
(45.3299°N, 1.9532°E)
Time: 10:33:14
(UTC+00:00)

Daily predictions for brighter satellites

Satellite Brightness Start Highest point End
(mag) Time Altitude Azimuth Time Altitude Azimuth Time Altitude Azimuth
USA 229 DEB 4.0 16:28:23 10° NW 16:35:39 64° NE 16:43:22 10° SE
USA 229 4.0 16:28:28 10° NW 16:35:44 64° NE 16:43:27 10° SE
Cosmos 1500 Rocket 3.8 16:36:10 10° N 16:40:30 49° ENE 16:44:46 10° SSE
Spot 1 4.4 16:36:07 10° NNE 16:40:50 68° ESE 16:45:46 10° S
Nadezhda 4 Rocket 4.0 16:36:03 10° N 16:42:25 72° E 16:48:43 10° SSE
ATLAS 2AS CENTAUR R/B 4.4 16:36:33 10° WNW 16:42:28 23° NNW 16:48:10 10° NNE
SeaSat 1 4.3 16:39:12 10° N 16:43:13 25° NW 16:47:13 10° WSW
Cosmos 990 Rocket 3.9 16:39:13 10° NNW 16:44:26 71° ENE 16:49:35 10° SSE
FengYun 1-2 T 4.3 16:40:14 10° SSE 16:45:44 60° ENE 16:51:10 10° N
Cosmos 1697 Rocket 2.8 16:41:09 10° NNW 16:46:41 54° ENE 16:52:09 10° SE
NOAA 6 4.2 16:44:12 10° SE 16:49:08 50° ENE 16:54:05 10° N
Sich 1 3.8 16:46:23 10° NNE 16:50:09 29° ENE 16:53:55 10° SE
Cosmos 1980 Rocket 2.8 16:45:43 10° N 16:50:50 33° NE 16:55:53 10° ESE
Cosmos 2221 2.9 16:46:45 10° SSW 16:51:00 67° W 16:55:17 10° N
Cosmos 1805 Rocket 4.0 16:48:08 10° N 16:52:13 38° ENE 16:56:16 10° SE
Cosmos 2369 4.1 16:47:25 10° NNW 16:52:52 42° NE 16:58:15 10° SE
USA 234 3.3 16:49:18 10° ESE 16:55:48 68° NNE 17:02:17 10° NW
Cosmos 1842 Rocket 3.9 16:51:25 10° SSW 16:55:52 70° W 17:00:21 10° N
CZ-4C R/B 3.4 16:50:23 10° NNW 16:56:54 40° NE 17:04:29 10° ESE
Cosmos 1092 Rocket 4.1 16:52:01 10° N 16:58:18 57° ENE 17:04:30 10° SSE
Cosmos 2084 3.6 16:54:30 10° NW 16:58:49 84° SW 17:03:18 10° SE
NOSS 3-1 (A) 4.2 16:51:45 10° NW 16:59:19 88° NE 17:08:10 10° SE
Cosmos 1812 4.2 16:57:15 10° SE 16:59:56 18° E 17:02:39 10° NE
USA 306 4.3 16:56:50 10° WNW 17:00:24 25° N 17:03:42 11° NE
SL-16 R/B 3.8 16:58:30 10° N 17:01:42 15° NE 17:04:16 12° ENE
ISS -3.1 16:58:52 10° NW 17:02:06 39° NNE 17:04:59 12° E
Meteor 1-25 Rocket 4.2 16:58:24 10° N 17:03:59 70° ENE 17:09:35 10° SSE
SMAP 3.0 17:00:29 10° SSE 17:05:05 69° ENE 17:09:44 10° N
NOSS 2-2 (E) 4.5 17:00:00 10° NNW 17:05:10 58° NE 17:12:25 10° SE
Cosmos 2082 Rocket 2.8 17:00:17 10° S 17:05:25 36° ESE 17:10:34 10° NE
Meteor PRIRODA 4.2 17:02:14 10° S 17:05:49 61° W 17:09:25 10° NNW
Cosmos 1939 Rocket 2.8 17:02:13 10° SSE 17:06:19 76° ENE 17:10:25 10° N
CORIOLIS 4.1 17:02:43 10° SSE 17:08:03 66° ENE 17:13:27 10° N
NOAA 12 4.5 17:06:00 10° S 17:11:19 72° WSW 17:16:39 10° NNW
CZ-4B DEB 4.2 17:09:00 10° SSE 17:14:26 65° ENE 17:19:54 10° N
Cosmos 2278 4.2 17:11:35 10° NNW 17:16:54 37° NE 17:22:09 10° ESE
Cosmos 1602 3.6 17:13:36 10° N 17:17:28 73° E 17:21:20 10° SSE
AQUARIUS 4.1 17:14:31 10° SSE 17:19:00 80° ENE 17:23:31 10° N
USA 307 4.3 17:15:41 10° WNW 17:19:17 25° N 17:21:44 16° NE
Cosmos 1627 Rocket 4.4 17:13:36 10° N 17:19:47 70° E 17:25:52 10° SSE
Cosmos 540 Rocket 3.4 17:15:18 10° SSW 17:20:22 73° ESE 17:25:29 10° NNE
Cosmos 2034 Rocket 4.5 17:15:38 10° SSW 17:21:43 64° W 17:27:51 10° N
ARGOS 3.7 17:19:50 10° SE 17:24:42 36° ENE 17:29:35 10° N
Cosmos 2279 Rocket 4.3 17:19:40 10° SSE 17:25:28 43° E 17:31:16 10° NNE
COSMOS 2406 3.2 17:20:16 10° SSW 17:26:02 86° ESE 17:31:48 10° NNE
COSMO-SKYMED 1 3.3 17:23:24 13° NE 17:26:42 32° E 17:30:35 10° SSE
Cosmos 1833 Rocket 2.9 17:21:45 10° SSW 17:27:21 74° WNW 17:33:01 10° NNE
Cosmos 1782 2.7 17:24:53 10° S 17:28:51 70° E 17:32:50 10° NNE
Cosmos 1814 Rocket 4.4 17:25:06 10° S 17:29:58 41° ESE 17:33:44 16° NE
Meteor 2-21 4.3 17:24:41 10° N 17:30:47 75° E 17:36:49 10° SSE
ATLAS 5 CENTAUR R/B 3.2 17:24:32 10° NW 17:31:34 28° NNE 17:33:07 22° NE
Cosmos 1633 Rocket 3.4 17:31:17 10° N 17:35:24 39° ENE 17:39:31 10° SE
Cosmos 1818 4.2 17:31:03 10° NNW 17:36:02 34° NE 17:38:50 21° E
YAOGAN 1 4.5 17:39:35 14° NNE 17:39:35 14° NNE 17:40:26 10° NNE
Cosmos 1898 Rocket 4.4 17:34:25 10° NNW 17:39:32 53° WSW 17:44:34 10° S
CZ-2D R/B 3.1 17:35:59 10° SSE 17:39:48 85° E 17:43:39 10° N
GEOS 3 Rocket 4.4 17:37:58 22° ENE 17:40:09 31° NE 17:44:39 10° NNW
USA 308 4.3 17:38:18 10° NW 17:41:53 25° N 17:43:13 21° NNE
Cosmos 1634 Rocket 4.0 17:36:00 10° S 17:42:20 89° E 17:48:43 10° N
SJ-11-01 4.5 17:38:03 10° SE 17:42:35 47° ENE 17:47:07 10° N
COSMOS 2455 2.8 17:37:16 10° SSW 17:43:17 83° ESE 17:48:14 16° NNE
PAYLOAD B 4.2 17:38:38 10° SSE 17:44:15 88° ENE 17:49:54 10° NNW
CZ-2C R/B 2.6 17:41:07 10° NNE 17:46:13 53° E 17:51:15 10° S
CZ-4B R/B 3.1 17:41:26 10° SSE 17:46:48 66° ENE 17:52:06 10° N
Cosmos 1500 3.2 17:43:14 10° NNW 17:46:59 77° W 17:50:42 10° S
Cosmos 1151 Rocket 3.0 17:43:37 10° S 17:47:51 60° E 17:51:27 14° NNE
Cosmos 2026 Rocket 4.1 17:42:26 10° NNW 17:48:35 75° W 17:54:36 10° S
Lacrosse 5 rocket 2.2 17:46:48 10° NW 17:50:18 30° NNE 17:50:36 30° NE
Okean O Rocket 1.7 17:46:33 10° SSE 17:50:53 54° ENE 17:55:15 10° N
Cosmos 2208 Rocket 4.2 17:53:53 10° S 17:59:06 52° ESE 18:01:39 29° NE
CZ-4 R/B 4.3 17:56:07 10° SSE 18:00:11 62° ENE 18:04:18 10° N
Cosmos 1666 Rocket 3.5 17:56:50 10° N 18:01:18 90° E 18:05:42 10° S
H-2A R/B 2.3 17:57:49 10° S 18:02:59 70° WSW 18:08:02 10° NNW
Meteor 1-11 Rocket 4.1 17:58:07 10° N 18:03:20 38° ENE 18:05:46 26° ESE
Cosmos 1470 Rocket 3.7 18:00:11 10° N 18:04:30 47° ENE 18:08:49 10° SSE
Cosmos 2150 Rocket 4.4 17:59:40 10° N 18:04:31 39° ENE 18:04:48 38° ENE
USA 267 3.8 18:01:04 21° NE 18:05:15 50° NNW 18:11:30 10° W
Cosmos 1328 Rocket 3.5 18:00:59 10° S 18:05:23 66° E 18:07:30 30° NNE
Cosmos 1655 Rocket 4.1 18:00:24 10° N 18:06:40 52° ENE 18:12:50 10° SSE
USA 305 4.0 18:05:02 10° NW 18:08:44 28° NNE 18:08:46 28° NNE
Cosmos 2360 Rocket 3.8 18:04:35 10° N 18:07:10 18° NNE 18:07:10 18° NNE
Landsat 5 3.3 18:08:42 54° ENE 18:09:18 62° ESE 18:13:14 10° S
Cosmos 2180 Rocket 4.4 18:07:47 10° S 18:14:07 78° E 18:20:25 10° N
Cosmos 841 Rocket 4.2 18:09:35 10° SW 18:14:36 51° WNW 18:18:54 14° N
SKYMED 2 3.6 18:12:00 21° N 18:14:54 81° WNW 18:19:14 10° SSW
Feng Yun 1-1 Rocket 4.3 18:10:24 10° SSE 18:16:15 64° ENE 18:22:03 10° N
Cosmos 1666 3.0 18:12:45 10° NNW 18:16:27 63° W 18:20:06 10° S
Meteor 2-8 Rocket 4.3 18:11:34 10° S 18:17:42 80° E 18:23:53 10° N
ATLAS CENTAUR R/B 3.3 18:11:01 10° WSW 18:19:04 43° NW 18:20:43 30° N
Cosmos 1125 Rocket 3.7 18:17:34 10° NNW 18:22:14 49° NE 18:22:14 49° NE
Cosmos 2322 Rocket 2.9 18:23:43 10° NNW 18:27:49 36° NNE 18:27:49 36° NNE
SL-08 RB Rocket 3.7 18:29:29 10° S 18:34:08 81° WSW 18:38:46 10° NNW
Cosmos 1980 Rocket 3.3 18:29:37 10° NW 18:34:57 43° WSW 18:40:13 10° S
Cosmos 1812 4.4 18:31:57 10° SW 18:35:26 32° WNW 18:37:47 17° NNW
ATLAS 2AS CENTAUR R/B 4.3 18:31:11 10° NW 18:36:21 19° N 18:37:27 19° NNE
ISS -2.1 18:35:42 10° WNW 18:37:58 34° W 18:37:58 34° W
USA 234 4.4 18:32:56 10° SSE 18:39:02 41° SW 18:45:10 10° WNW
USA 306 4.5 18:37:15 10° NW 18:39:42 26° NNW 18:39:42 26° NNW
CZ-4C R/B 3.3 18:38:41 10° NW 18:46:00 68° WSW 18:54:28 10° SSE
SL-16 R/B 2.2 18:41:13 10° NNW 18:46:11 62° NNE 18:46:11 62° NNE
Cosmos 1515 Rocket 4.5 18:43:10 10° S 18:46:04 40° SSW 18:46:04 40° SSW
Cosmos 2082 Rocket 3.4 18:44:11 10° WSW 18:49:28 38° NW 18:52:35 22° N
Cosmos 44 Rocket 3.6 18:48:57 10° NW 18:53:09 62° WNW 18:53:09 62° WNW
Cosmos 2333 Rocket 4.3 18:53:21 10° N 18:54:27 14° N 18:54:27 14° N
Cosmos 2298 Rocket 4.5 19:04:17 10° NNW 19:09:28 58° WSW 19:09:28 58° WSW
CZ-2C R/B 4.2 19:09:28 10° SSW 19:09:35 10° SSW 19:09:35 10° SSW
GEOS 3 Rocket 4.3 19:19:06 50° WNW 19:19:06 50° WNW 19:23:06 10° NW
Cosmos 1818 4.4 19:14:32 10° NW 19:19:33 48° WSW 19:19:33 48° WSW
Okean O Rocket 4.4 19:24:42 10° SW 19:27:33 17° W 19:30:24 10° NW
Lacrosse 5 rocket 4.2 19:25:38 10° WNW 19:26:13 14° WNW 19:26:13 14° WNW
BREEZE-M DEB (TANK) 4.3 19:24:14 10° SW 19:44:57 82° W 19:44:57 82° W
Cosmos 2360 Rocket 4.4 19:47:46 10° NNW 19:48:57 17° NNW 19:48:57 17° NNW
Cosmos 2322 Rocket 4.5 20:07:57 10° NW 20:09:40 19° NW 20:09:40 19° NW
